Tracking 19792 objects as of 16-Jul-2019
HD Live streaming from Space Station
objects crossing your sky now

CZ-4 DEB

Track CZ-4 DEB now!
10-day predictions


NORAD ID: 35322
Int'l Code: 1999-057SA
Perigee: 714.1 km
Apogee: 1,008.6 km
Inclination: 99.0 °
Period: 102.0 minutes
Semi major axis: 7232 km
RCS: 0.0144 m2 (small)
Launch date: October 14, 1999
Source: People's Republic of China (PRC)
Launch site: Taiyaun Space Center, China (TSC)

Note: This is SATELLITE DEBRIS
aabbcc
Your satellite tracking list
Your tracking list is empty




NASA's NSSDC Master Catalog

Two Line Element Set (TLE):
1 35322U 99057SA  19196.12316224  .00000022  00000-0  31048-4 0  9996
2 35322  99.0416 156.2159 0203596   3.8809 356.3885 14.11513845823552
Source of the keplerian elements: AFSPC